LAB24 Weather Reports


time (UTC)temp
C
wind
direction
speed
KPH
gust
KPH
rain 1hr
cm
rain 24hr
cm
rain mn
cm
humidity
%
barometer
mb
20260504044526 9 355 1.6 6.4 0.00 0.00 0.00 71 1016.2
20260504043030 9 294 0.0 4.8 0.00 0.00 0.00 72 1016.0
20260504041503 10 274 3.2 8.0 0.00 0.00 0.00 69 1015.8
20260504040008 9 338 4.8 8.0 0.00 0.00 0.00 69 1015.8
20260504034508 10 242 0.0 4.8 0.00 0.00 0.00 69 1015.8
20260504033012 10 333 3.2 6.4 0.00 0.00 0.00 70 1015.7
20260504031517 10 241 1.6 6.4 0.00 0.00 0.00 71 1015.8
20260504030004 10 296 1.6 4.8 0.00 0.00 0.00 69 1015.8
20260504024505 10 261 3.2 4.8 0.00 0.00 0.00 70 1015.9
20260504023006 10 307 3.2 6.4 0.00 0.00 0.00 72 1016.0
20260504021513 10 321 1.6 6.4 0.00 0.00 0.00 74 1016.1
20260504020016 10 257 1.6 6.4 0.00 0.00 0.00 76 1016.1
20260504014510 10 352 3.2 8.0 0.00 0.00 0.00 76 1016.1
20260504013007 11 288 3.2 8.0 0.00 0.00 0.00 75 1016.0
20260504011512 11 292 3.2 8.0 0.00 0.00 0.00 76 1016.0
20260504010015 11 330 3.2 6.4 0.00 0.00 0.00 77 1016.0
20260504004523 11 238 3.2 6.4 0.00 0.00 0.00 77 1016.1
20260504003024 11 178 1.6 9.7 0.00 0.00 0.00 77 1016.1
20260504001508 11 194 3.2 6.4 0.00 0.00 0.00 76 1016.2
20260504000013 11 300 1.6 4.8 0.00 0.00 0.00 75 1016.3
20260503234522 11 309 0.0 6.4 0.00 0.00 0.00 75 1016.3
20260503233024 11 313 1.6 8.0 0.00 0.00 0.00 75 1016.5
20260503231541 11 296 1.6 6.4 0.00 0.00 0.00 76 1016.5
20260503230013 11 273 1.6 6.4 0.00 0.00 0.00 76 1016.6
20260503224516 11 303 1.6 4.8 0.00 0.00 0.00 77 1016.8
20260503223024 11 215 1.6 6.4 0.00 0.00 0.00 76 1016.9
20260503221524 11 202 1.6 4.8 0.00 0.00 0.00 76 1016.8
20260503220035 11 293 1.6 4.8 0.00 0.00 0.00 75 1016.7
20260503214514 12 261 1.6 6.4 0.00 0.00 0.00 74 1016.7
20260503213018 12 317 1.6 6.4 0.00 0.00 0.00 74 1016.6
20260503211525 12 307 1.6 4.8 0.00 0.00 0.00 72 1016.6
20260503210026 12 298 0.0 3.2 0.00 0.00 0.00 72 1016.7
20260503204541 12 290 1.6 4.8 0.00 0.00 0.00 72 1016.5
20260503203022 12 277 1.6 6.4 0.00 0.00 0.00 72 1016.6
20260503201525 12 278 0.0 6.4 0.00 0.00 0.00 72 1016.6
20260503200022 12 263 1.6 8.0 0.00 0.00 0.00 73 1016.6
20260503194529 12 286 3.2 8.0 0.00 0.00 0.00 73 1016.5
20260503193029 13 277 1.6 3.2 0.00 0.00 0.00 70 1016.5
20260503191517 13 284 0.0 3.2 0.00 0.00 0.00 69 1016.2
20260503190004 14 299 1.6 6.4 0.00 0.00 0.00 67 1016.2
20260503184509 15 288 0.0 4.8 0.00 0.00 0.00 65 1015.9
20260503183012 15 321 1.6 4.8 0.00 0.00 0.00 64 1015.8
20260503181516 16 303 0.0 3.2 0.00 0.00 0.00 61 1015.7
20260503180029 17 140 0.0 3.2 0.00 0.00 0.00 57 1015.5
20260503174510 17 131 0.0 1.6 0.00 0.00 0.00 54 1015.4
20260503173013 18 153 0.0 3.2 0.00 0.00 0.00 53 1015.2
20260503171518 18 109 1.6 3.2 0.00 0.00 0.00 51 1015.1
20260503081516 17 231 1.6 8.0 0.00 0.00 0.00 49 1017.5
20260503071511 16 43 0.0 3.2 0.00 0.00 0.00 54 1017.8
20260503054530 9 261 0.0 3.2 0.00 0.00 0.00 71 1017.5
20260503053022 8 288 0.0 3.2 0.00 0.00 0.00 71 1017.6